OBJECT AQ, 57204

Orbit data source: Space-Track

You're viewing an Uncataloged Satellite

Recently launched and/or uncataloged satellites may have evolving metadata. Metadata may include but not limited to: Owner, Maufacturer, Bus, Motor, and Mission.

OBJECT AQ, 57204 is a satellite in SSO that was launched on Tue, 27 Jun 2023 UTC via a SOYUZ-2-1B launch vehicle from the Vostochny Cosmodrome (VOSTO). Unknown objects in Earth's orbit typically refer to objects detected orbiting the Earth but have not yet been identified or cataloged. These objects could be anything from previously untracked satellites, spent rocket stages, debris from satellite collisions, or even natural meteoroids temporarily captured by Earth's gravity.

Loading next visibility...
Identifier
57204, 2023-091AQ
Orbit
SSO
Country
Flag of TBDTBD
Related business
Manufacturer
Sputniks
Mission
Operational Commercial Communications
Bus & Motor
CUBESAT 3U?, Unknown motor
Mass
3 kg wet, 3 kg dry
Launch date (UTC)
2023-06-27 (2 years ago)
Launch vehicle
SOYUZ-2-1B
Launch site
Vostochny Cosmodrome (VOSTO)
Object type
Unknown
Shape & HBR
Box, 0.1 m
Radar Cross Section
0.035 m², Small (<0.1 m²)

Expand to show TLE details & history
Last TLE update: 8 hours ago

TLE from 8 hours ago
0 OBJECT AQ
1 57204U 23091AQ  25304.27948362  .00022569  00000-0  80677-3 0  9993
2 57204  97.5426   5.7846 0008940 154.1231 206.0457 15.28792209129686
Epoch: 2025-10-31T06:42Z
TLE epoch observation values (Epoch: 2025-10-31T06:42:27.384Z)
Latitude
-0.00007°
Longitude
-134.65568°
Altitude
488.03 km
Speed
7.618 km/s
True Right ascension
00h 23m 08s
True Declination
0° 00' 00"
Sunlit
Object was in full shadow at epoch
Visualization orbit readout
Latitude
Unknown
Longitude
Unknown
Altitude
Unknown
Speed
Unknown
Apparent Right ascension
Unknown
Apparent Declination
Unknown
Sunlit
N/A
Visualization observer readout
Local Sidereal Time
10:16:02
Azimuth
Unknown
Elevation
Unknown
Doppler factor
Unknown
Orbital elements
Apogee altitude
482.51 km
Perigee altitude
470.254 km
Semi-major axis
6,854.519 km
Eccentricity
0.00089
Inclination
97.5426°
RAAN
5.7846°
Arg. of periapsis
154.1231°
True anomaly
206.00076°
Mean anomaly
206.0457°
Eccentric anomaly
206.02323°
Mean motion
3.82453 °/min
Orbital period
94.13 mins
BSTAR
0.00080677
Loading maneuver chart data...
Computing Atmospheric mass density...
Loading historical data...
Loading historical data...
Loading historical data...
Loading historical data...
Loading historical data...
Loading historical data...
Loading historical data...

Documentation

Showing up to 5 results
|